{"data":{"norad_id":66380,"epoch":"2026-09-20T22:55:07.203936Z","epoch_age_seconds":68168,"freshness":"FRESH","line1":"1 66380U 25257A   26263.95494449  .00004497  00000+0  14420-3 0  9998","line2":"2 66380  53.1606  25.4933 0001214  77.3300 282.7838 15.34388608 49636","mean_motion":15.34388608,"eccentricity":0.0001214,"inclination_deg":53.1606,"raan_deg":25.4933,"arg_perigee_deg":77.33,"mean_anomaly_deg":282.7838,"bstar":0.0001442,"rev_number":4963,"period_min":93.848454849842,"perigee_km":461.90661772563,"apogee_km":463.56758195707,"semimajor_km":6840.8740998413,"source":"CELESTRAK","updated_at":"2026-09-21T09:00:35.884920Z"}}